GW0070 Weather Reports


Display with metric or nautical units.
time (UTC)temp
F
wind
direction
speed
MPH
gust
MPH
rain 1hr
in
rain 24hr
in
rain mn
in
humidity
%
barometer
mb
20260506175519 62 239 6.0 10.0 0.00 0.00 0.00 83 1020.7
20260506175016 61 235 4.0 13.0 0.00 0.00 0.00 82 1020.7
20260506174553 61 227 9.0 13.0 0.00 0.00 0.00 83 1020.6
20260506174019 61 244 9.0 12.0 0.00 0.00 0.00 83 1020.6
20260506173515 60 263 6.0 13.0 0.00 0.00 0.00 84 1020.8
20260506173122 60 237 9.0 13.0 0.00 0.00 0.00 84 1020.8
20260506172513 60 232 8.0 12.0 0.00 0.00 0.00 82 1020.7
20260506172015 60 254 8.0 13.0 0.00 0.00 0.00 84 1020.7
20260506171557 59 242 10.0 14.0 0.00 0.00 0.00 83 1020.6
20260506171017 59 247 11.0 14.0 0.00 0.00 0.00 83 1020.7
20260506170516 59 237 10.0 14.0 0.00 0.00 0.00 83 1020.6
20260506170107 59 241 10.0 14.0 0.00 0.00 0.00 84 1020.5
20260506165517 58 246 10.0 14.0 0.00 0.00 0.00 83 1020.7
20260506165017 58 236 11.0 15.0 0.00 0.00 0.00 84 1020.5
20260506164601 58 235 12.0 15.0 0.00 0.00 0.00 84 1020.5
20260506164018 58 245 12.0 15.0 0.00 0.00 0.00 85 1020.5
20260506163515 57 244 11.0 15.0 0.00 0.00 0.00 85 1020.5
20260506163059 57 245 12.0 15.0 0.00 0.00 0.00 85 1020.4
20260506162516 57 247 12.0 16.0 0.00 0.00 0.00 85 1020.4
20260506162020 57 239 12.0 15.0 0.00 0.00 0.00 86 1020.6
20260506161559 56 249 13.0 16.0 0.00 0.00 0.00 87 1020.6
20260506161018 56 242 14.0 16.0 0.00 0.00 0.00 86 1020.6
20260506160515 56 243 12.0 15.0 0.00 0.00 0.00 87 1020.6
20260506160100 56 239 13.0 15.0 0.00 0.00 0.00 87 1020.6
20260506155515 56 249 12.0 15.0 0.00 0.00 0.00 88 1020.7
20260506155015 56 241 13.0 15.0 0.00 0.00 0.00 88 1020.7
20260506154614 55 233 12.0 15.0 0.00 0.00 0.00 88 1020.8
20260506154015 55 243 12.0 16.0 0.00 0.00 0.00 89 1020.6
20260506153518 55 241 11.0 16.0 0.00 0.00 0.00 89 1020.7
20260506153059 55 245 12.0 15.0 0.00 0.00 0.00 89 1020.6
20260506152517 55 241 12.0 15.0 0.00 0.00 0.00 89 1020.5
20260506152016 55 239 12.0 16.0 0.00 0.00 0.00 90 1020.4
20260506151603 55 248 12.0 16.0 0.00 0.00 0.00 91 1020.5
20260506151017 55 241 14.0 16.0 0.00 0.00 0.00 90 1020.5
20260506150518 54 238 13.0 16.0 0.00 0.00 0.00 90 1020.3
20260506150057 54 245 14.0 16.0 0.00 0.00 0.00 91 1020.1
20260506145520 54 243 14.0 16.0 0.00 0.00 0.00 91 1020.1
20260506145017 54 237 13.0 18.0 0.00 0.00 0.00 91 1020.1
20260506144609 54 249 14.0 18.0 0.00 0.00 0.00 91 1020.4
20260506144018 54 245 13.0 18.0 0.00 0.00 0.00 91 1020.4
20260506143519 53 251 15.0 18.0 0.00 0.00 0.00 91 1020.0
20260506143102 53 253 16.0 19.0 0.00 0.00 0.00 91 1020.1
20260506142517 53 251 16.0 19.0 0.00 0.00 0.00 92 1019.9
20260506142015 53 254 16.0 19.0 0.00 0.00 0.00 92 1019.8
20260506141600 53 239 15.0 18.0 0.00 0.00 0.00 92 1019.9
20260506141017 53 253 15.0 18.0 0.00 0.00 0.00 92 1019.6
20260506140519 53 254 15.0 21.0 0.00 0.00 0.00 91 1019.7
20260506140116 53 250 16.0 19.0 0.00 0.00 0.00 91 1019.7
20260506135519 53 245 14.0 18.0 0.00 0.00 0.00 91 1019.6
20260506135017 53 253 15.0 21.0 0.00 0.00 0.00 91 1019.5
20260506134614 53 245 17.0 21.0 0.00 0.00 0.00 91 1019.4
20260506134017 53 249 15.0 20.0 0.00 0.00 0.00 90 1019.4
20260506133521 53 250 15.0 20.0 0.00 0.00 0.00 90 1019.4
20260506133128 53 248 15.0 20.0 0.00 0.00 0.00 90 1019.5
20260506132517 53 253 15.0 19.0 0.00 0.00 0.00 90 1019.5
20260506132021 53 241 17.0 20.0 0.00 0.00 0.00 90 1019.4
20260506131555 53 242 16.0 20.0 0.00 0.00 0.00 90 1019.3
20260506131020 53 256 14.0 19.0 0.00 0.00 0.00 90 1019.4
20260506130517 53 259 15.0 20.0 0.00 0.00 0.00 90 1019.3
20260506130123 53 245 15.0 21.0 0.00 0.00 0.00 90 1019.3
20260506125520 53 239 17.0 21.0 0.00 0.00 0.00 90 1019.3
20260506125016 53 256 17.0 24.0 0.00 0.00 0.00 90 1019.1
20260506124622 53 256 19.0 24.0 0.00 0.00 0.00 90 1019.2
20260506124017 53 244 18.0 22.0 0.00 0.00 0.00 90 1019.1
20260506123515 53 247 17.0 23.0 0.00 0.00 0.00 91 1019.0
20260506123119 53 251 19.0 23.0 0.00 0.00 0.00 90 1018.9
20260506122519 53 251 18.0 23.0 0.00 0.00 0.00 90 1019.0
20260506122011 53 246 20.0 23.0 0.00 0.00 0.00 90 1018.9
20260506121528 53 248 17.0 22.0 0.00 0.00 0.00 90 1018.9
20260506121009 53 239 18.0 21.0 0.00 0.00 0.00 91 1019.0
20260506120511 53 243 17.0 24.0 0.00 0.00 0.00 90 1019.0
20260506120030 53 241 18.0 24.0 0.00 0.00 0.00 90 1019.1
20260506115508 53 247 18.0 23.0 0.00 0.00 0.00 90 1019.0
20260506115008 53 252 15.0 23.0 0.00 0.00 0.00 90 1019.1
20260506114529 53 243 17.0 21.0 0.00 0.00 0.00 90 1019.0
20260506114009 53 245 18.0 22.0 0.00 0.00 0.00 90 1018.9
20260506113508 53 242 18.0 22.0 0.00 0.00 0.00 90 1018.9
20260506113028 53 257 14.0 22.0 0.00 0.00 0.00 90 1018.9
20260506112509 53 237 18.0 22.0 0.00 0.00 0.00 90 1018.7
20260506112009 53 228 16.0 22.0 0.00 0.00 0.00 89 1018.9
20260506111528 53 239 15.0 21.0 0.00 0.00 0.00 90 1018.8
20260506111011 53 246 15.0 21.0 0.00 0.00 0.00 90 1018.7
20260506110511 53 243 12.0 21.0 0.00 0.00 0.00 89 1018.8
20260506110028 53 251 14.0 20.0 0.00 0.00 0.00 90 1018.6
20260506105508 53 263 12.0 20.0 0.00 0.00 0.00 90 1019.1
20260506105008 53 244 16.0 21.0 0.00 0.00 0.00 90 1018.8
20260506104554 53 241 16.0 22.0 0.00 0.00 0.00 89 1018.7
20260506104009 53 236 18.0 23.0 0.00 0.00 0.00 89 1018.6
20260506103510 53 244 19.0 23.0 0.00 0.00 0.00 88 1018.3
20260506103032 53 251 19.0 25.0 0.00 0.00 0.00 88 1018.3
20260506102508 53 242 20.0 24.0 0.00 0.00 0.00 88 1018.3
20260506102009 53 246 19.0 24.0 0.00 0.00 0.00 88 1018.1
20260506101529 53 245 19.0 24.0 0.00 0.00 0.00 89 1018.3
20260506101007 53 249 19.0 24.0 0.00 0.00 0.00 89 1018.1
20260506100508 53 238 20.0 26.0 0.00 0.00 0.00 89 1018.0
20260506100039 53 247 22.0 27.0 0.00 0.00 0.00 89 1018.0
20260506095511 53 246 20.0 27.0 0.00 0.01 0.00 90 1018.2
20260506095009 53 245 21.0 27.0 0.00 0.01 0.00 89 1018.0
20260506094533 53 240 21.0 27.0 0.00 0.01 0.00 89 1018.0
20260506094012 53 251 20.0 25.0 0.00 0.01 0.00 89 1018.2
20260506093513 53 257 20.0 24.0 0.00 0.01 0.00 89 1018.2
20260506093028 53 254 20.0 25.0 0.00 0.01 0.00 88 1018.0
20260506092507 53 253 21.0 25.0 0.00 0.01 0.00 88 1018.3
20260506092013 53 246 20.0 25.0 0.00 0.01 0.00 88 1018.5
20260506091529 53 249 19.0 23.0 0.00 0.01 0.00 88 1018.3
20260506091010 53 237 19.0 24.0 0.00 0.01 0.00 88 1018.4
20260506090511 53 238 18.0 24.0 0.00 0.01 0.00 89 1018.5
20260506090035 53 247 20.0 28.0 0.00 0.01 0.00 88 1018.4
20260506085511 53 253 21.0 28.0 0.00 0.03 0.00 88 1018.1
20260506085008 53 243 18.0 23.0 0.00 0.03 0.00 88 1018.5
20260506084527 53 255 18.0 23.0 0.00 0.03 0.00 88 1018.6
20260506084012 53 255 17.0 23.0 0.00 0.03 0.00 88 1018.4
20260506083512 53 241 16.0 26.0 0.00 0.03 0.00 88 1018.6
20260506083037 53 240 21.0 26.0 0.00 0.03 0.00 87 1018.4
20260506082510 53 237 21.0 26.0 0.00 0.03 0.00 88 1018.1
20260506082007 53 224 18.0 26.0 0.00 0.03 0.00 88 1018.4
20260506081526 53 249 20.0 26.0 0.00 0.03 0.00 88 1018.1
20260506081010 53 239 21.0 26.0 0.00 0.03 0.00 89 1018.2
20260506080508 53 247 20.0 26.0 0.00 0.03 0.00 90 1018.4
20260506073512 53 241 25.0 32.0 0.00 0.09 0.00 89 1017.0
20260506073030 53 258 27.0 32.0 0.00 0.09 0.00 89 1017.0
20260506072512 53 246 26.0 31.0 0.00 0.09 0.00 89 1016.9
20260506072011 53 254 28.0 32.0 0.00 0.09 0.00 88 1017.0
20260506071529 53 249 27.0 32.0 0.00 0.09 0.00 88 1017.0
20260506071012 53 244 26.0 32.0 0.00 0.09 0.00 88 1017.0
20260506070507 53 246 26.0 30.0 0.00 0.09 0.00 88 1017.0
20260506062512 53 247 24.0 29.0 0.00 0.11 0.09 87 1017.1
20260506062011 54 240 23.0 28.0 0.00 0.11 0.09 87 1016.9
20260506061528 54 243 23.0 30.0 0.00 0.11 0.09 87 1016.8
20260506061013 54 235 25.0 30.0 0.00 0.11 0.09 86 1016.7
20260506060514 54 243 26.0 30.0 0.00 0.11 0.09 86 1017.0
20260506051012 54 255 28.0 33.0 0.00 0.17 0.09 85 1016.4
20260506050510 54 241 27.0 32.0 0.00 0.17 0.09 85 1016.3
20260506045008 54 233 27.0 30.0 0.00 0.24 0.09 86 1016.0
20260506044533 55 252 26.0 30.0 0.00 0.24 0.09 85 1016.0
20260506044011 54 240 25.0 29.0 0.00 0.24 0.09 86 1016.1
20260506043511 54 255 23.0 30.0 0.00 0.24 0.09 86 1016.1
20260506043028 55 256 26.0 30.0 0.00 0.24 0.09 86 1016.0
20260506042513 55 263 26.0 30.0 0.00 0.24 0.09 86 1016.1
20260506042012 55 253 26.0 30.0 0.00 0.24 0.09 86 1015.9
20260506041528 55 238 25.0 29.0 0.00 0.24 0.09 86 1015.8
20260506041011 55 247 24.0 28.0 0.00 0.24 0.09 86 1015.8
20260506040511 55 249 22.0 28.0 0.00 0.24 0.09 86 1016.0
20260506040042 55 244 24.0 28.0 0.00 0.24 0.09 85 1016.0
20260506035510 55 252 24.0 28.0 0.00 0.29 0.09 85 1016.0
20260506035010 55 241 24.0 29.0 0.00 0.29 0.09 85 1015.7
20260506034530 55 253 25.0 29.0 0.00 0.29 0.09 85 1015.6
20260506034010 55 247 20.0 28.0 0.00 0.29 0.09 85 1015.9
20260506033511 55 255 23.0 28.0 0.00 0.29 0.09 84 1016.0
20260506033029 55 258 24.0 31.0 0.00 0.29 0.09 84 1015.8
20260506032511 56 250 22.0 31.0 0.00 0.29 0.09 84 1015.9
20260506032011 56 246 24.0 29.0 0.00 0.29 0.09 84 1015.3
20260506031530 56 247 26.0 29.0 0.00 0.29 0.09 84 1015.3
20260506031012 56 258 25.0 29.0 0.00 0.29 0.09 85 1015.2
20260506030511 56 258 22.0 28.0 0.00 0.29 0.09 85 1014.9
20260506030028 56 247 25.0 30.0 0.00 0.29 0.09 85 1014.8
20260506025512 56 255 25.0 30.0 0.00 0.31 0.09 85 1014.7
20260506025012 56 260 23.0 28.0 0.00 0.31 0.09 85 1015.0
20260506024536 57 247 24.0 29.0 0.00 0.31 0.09 84 1014.6
20260506024009 57 261 25.0 30.0 0.00 0.31 0.09 84 1014.6
20260506023514 57 244 24.0 30.0 0.00 0.31 0.09 84 1014.5
20260506023030 57 243 25.0 31.0 0.00 0.31 0.09 84 1014.4
20260506022511 57 249 27.0 31.0 0.00 0.31 0.09 84 1014.2
20260506022011 57 235 23.0 28.0 0.00 0.31 0.09 83 1014.4
20260506021543 58 259 24.0 28.0 0.00 0.31 0.09 83 1014.4
20260506021010 58 242 24.0 27.0 0.00 0.31 0.09 83 1014.4
20260506020513 58 243 24.0 27.0 0.00 0.31 0.09 83 1014.6
20260506020030 58 237 22.0 29.0 0.00 0.31 0.09 84 1014.7
20260506015512 58 239 25.0 29.0 0.00 0.31 0.09 84 1014.4
20260506015015 58 243 22.0 27.0 0.00 0.31 0.09 83 1014.5
20260506014529 58 256 22.0 26.0 0.00 0.31 0.09 83 1014.5
20260506014012 58 245 22.0 29.0 0.00 0.31 0.09 82 1014.7
20260506013512 58 231 25.0 29.0 0.00 0.31 0.09 82 1014.5
20260506013029 58 237 22.0 28.0 0.00 0.31 0.09 82 1014.4
20260506012512 58 227 23.0 27.0 0.00 0.31 0.09 82 1014.6
20260506012012 58 231 21.0 28.0 0.00 0.31 0.09 82 1014.9
20260506011531 58 241 24.0 30.0 0.00 0.31 0.09 82 1014.6
20260506011010 59 231 22.0 30.0 0.00 0.31 0.09 81 1014.4
20260506010512 58 249 23.0 25.0 0.00 0.31 0.09 82 1014.3
20260506010043 58 233 21.0 25.0 0.00 0.31 0.09 83 1014.6
20260506005512 58 233 20.0 23.0 0.00 0.32 0.09 83 1014.7
20260506005013 59 232 18.0 24.0 0.00 0.32 0.09 83 1014.9
20260506004527 59 233 18.0 24.0 0.00 0.32 0.09 84 1014.8
20260506004010 59 222 18.0 23.0 0.00 0.32 0.09 83 1014.6
20260506003512 59 221 17.0 21.0 0.00 0.32 0.09 83 1014.6
20260506003029 59 224 18.0 23.0 0.00 0.32 0.09 83 1014.4
20260506002515 59 217 18.0 23.0 0.00 0.32 0.09 82 1014.5
20260506002010 59 237 18.0 22.0 0.00 0.32 0.09 82 1014.4
20260506001528 59 225 18.0 22.0 0.00 0.32 0.09 82 1014.6
20260506001010 59 230 19.0 22.0 0.00 0.32 0.09 81 1014.3
20260506000512 59 235 17.0 21.0 0.00 0.32 0.09 81 1014.4
20260506000031 59 240 17.0 21.0 0.00 0.32 0.09 81 1014.6
20260505235511 59 246 16.0 20.0 0.00 0.32 0.09 80 1014.6
20260505235013 60 236 13.0 18.0 0.00 0.32 0.09 81 1014.8
20260505234547 60 226 13.0 18.0 0.00 0.32 0.09 81 1014.7
20260505234013 60 242 14.0 18.0 0.00 0.32 0.09 80 1014.9
20260505233516 59 242 13.0 18.0 0.00 0.32 0.09 81 1014.9
20260505233033 60 229 14.0 18.0 0.00 0.32 0.09 80 1014.9
20260505232514 60 230 13.0 19.0 0.00 0.32 0.09 80 1015.0
20260505232012 60 224 13.0 19.0 0.00 0.32 0.09 80 1015.0
20260505231532 60 231 14.0 18.0 0.00 0.32 0.09 80 1014.8
20260505231012 59 239 12.0 17.0 0.00 0.32 0.09 81 1014.8
20260505230513 59 237 14.0 17.0 0.00 0.32 0.09 81 1014.7
20260505230031 59 247 12.0 16.0 0.00 0.32 0.09 81 1014.9
20260505225511 59 246 11.0 15.0 0.00 0.32 0.09 81 1015.0
20260505225012 59 220 10.0 17.0 0.00 0.32 0.09 81 1015.0
20260505224533 59 251 12.0 17.0 0.00 0.32 0.09 81 1014.9
20260505224016 59 233 13.0 19.0 0.00 0.32 0.09 81 1015.1
20260505223511 59 237 13.0 19.0 0.00 0.32 0.09 82 1015.1
20260505223029 59 245 14.0 17.0 0.00 0.32 0.09 81 1015.2
20260505222512 59 228 13.0 17.0 0.00 0.32 0.09 81 1015.2
20260505222013 59 226 13.0 17.0 0.00 0.32 0.09 82 1015.3
20260505221529 59 237 14.0 20.0 0.00 0.32 0.09 82 1015.2
20260505221012 59 243 15.0 20.0 0.00 0.32 0.09 81 1015.1
20260505220512 58 238 12.0 18.0 0.00 0.32 0.09 82 1015.2
20260505220031 58 245 15.0 18.0 0.00 0.32 0.09 81 1015.4
20260505215512 58 220 13.0 18.0 0.00 0.32 0.09 82 1015.3
20260505215012 58 226 13.0 19.0 0.00 0.32 0.09 82 1015.4
20260505214542 58 226 15.0 19.0 0.00 0.32 0.09 82 1015.3
20260505214015 58 238 15.0 20.0 0.00 0.32 0.09 83 1015.4
20260505213512 58 245 16.0 20.0 0.00 0.32 0.09 82 1015.3
20260505213031 58 239 16.0 20.0 0.00 0.32 0.09 82 1015.4
20260505212518 58 246 15.0 18.0 0.00 0.32 0.09 83 1015.4
20260505212013 58 234 14.0 18.0 0.00 0.32 0.09 82 1015.4
20260505211540 58 248 15.0 17.0 0.00 0.32 0.09 83 1015.6
20260505211013 58 246 14.0 17.0 0.00 0.32 0.09 83 1015.6
20260505210516 58 222 12.0 15.0 0.00 0.32 0.09 83 1015.6
20260505210033 58 237 12.0 16.0 0.00 0.32 0.09 84 1015.4
20260505205512 58 220 11.0 16.0 0.00 0.32 0.09 84 1015.5
20260505205013 58 221 11.0 16.0 0.00 0.32 0.09 84 1015.6
20260505204534 58 233 12.0 17.0 0.00 0.32 0.09 84 1015.6
20260505204010 58 237 14.0 17.0 0.00 0.32 0.09 82 1015.7
20260505203513 58 240 11.0 16.0 0.00 0.32 0.09 82 1015.7
20260505203046 58 239 13.0 17.0 0.00 0.32 0.09 83 1015.6
20260505202511 58 231 13.0 17.0 0.00 0.32 0.09 82 1015.5
20260505202012 59 254 13.0 16.0 0.00 0.32 0.09 82 1015.3
20260505201531 58 243 12.0 18.0 0.00 0.32 0.09 83 1015.4
20260505201018 58 228 14.0 18.0 0.00 0.32 0.09 83 1015.2
20260505200513 58 233 13.0 18.0 0.00 0.32 0.09 83 1015.3
20260505200039 58 255 14.0 18.0 0.00 0.32 0.09 83 1015.4
20260505195512 58 245 15.0 18.0 0.00 0.32 0.09 83 1015.5
20260505195012 58 243 13.0 18.0 0.00 0.32 0.09 83 1015.6
20260505194542 58 242 14.0 18.0 0.00 0.32 0.09 83 1015.5
20260505194016 57 262 14.0 19.0 0.00 0.32 0.09 83 1015.5
20260505193513 57 243 15.0 19.0 0.00 0.32 0.09 83 1015.5
20260505193037 58 241 14.0 21.0 0.00 0.32 0.09 85 1015.6
20260505192512 58 238 15.0 19.0 0.00 0.32 0.09 83 1015.5
20260505192012 57 253 13.0 19.0 0.00 0.32 0.09 84 1015.5
20260505191543 57 264 16.0 21.0 0.00 0.32 0.09 83 1015.5
20260505191012 57 260 15.0 21.0 0.00 0.32 0.09 83 1015.4
20260505190511 57 272 15.0 21.0 0.00 0.32 0.09 84 1015.3
20260505190035 57 275 13.0 18.0 0.00 0.32 0.09 83 1015.5
20260505185513 57 271 15.0 19.0 0.00 0.32 0.09 84 1015.4
20260505185014 56 259 17.0 19.0 0.00 0.32 0.09 83 1015.2
20260505184545 57 248 16.0 20.0 0.00 0.32 0.09 84 1015.2
20260505184016 57 261 14.0 21.0 0.00 0.32 0.09 85 1015.4
20260505183512 57 243 15.0 21.0 0.00 0.32 0.09 86 1015.4
20260505183043 56 262 15.0 20.0 0.00 0.32 0.09 86 1015.5
20260505182512 56 265 15.0 19.0 0.00 0.32 0.09 87 1015.5
20260505182013 56 262 16.0 20.0 0.00 0.32 0.09 87 1015.4
20260505181535 56 267 17.0 20.0 0.00 0.32 0.09 86 1015.3
20260505181010 55 256 16.0 23.0 0.00 0.32 0.09 87 1015.1
20260505180516 55 268 18.0 24.0 0.00 0.32 0.09 85 1015.1
20260505180037 55 263 20.0 24.0 0.00 0.32 0.09 87 1015.0